Find Starlink 11613

NORAD ID: 63136 Int'l Des: 2025-043 Owner: SPXS Country: US Constellation: starlink operational
LEOCIRCULAR

現在のビュー

3D地球を読み込み中...

About Starlink 11613

Starlink 11613 (NORAD 63136) is a starlink constellation satellite (v2 mini d2c) launched Mar 3, 2025 by SPXS of US. It operates in LEO, CIRCULAR orbit with a mass of 960.00 kg.

Starlink 11613について

説明を読み込み中...

次回通過

Passes for default location (London). Set your location on the main map for personalized predictions.

高度履歴

Loading altitude history...

軌道要素

1 63136U 25043E 26170.58322477 .00156368 00000-0 11984-2 0 9991
2 63136 43.0003 356.8661 0003842 289.8829 70.1625 15.70851815 75496
Epoch: Jun 19, 2026 • Age: 12 hours

現在のステータス

高度 366.1 km
速度 7.69 km/s
衛星直下点 -39.77°S, 57.85°W
打ち上げ日 Mar 3, 2025
運用期間 1.2 years
タイプ internet

技術仕様

分類 Payload
質量 960.00 kg
乾燥質量 910.00 kg
総質量 960.00 kg
長さ 0.30 m
直径 4.10 m
スパン 29.00 m
形状 Box + pan
製造者 SPXS
バスタイプ Starlink V2MD
フェーズステータス In Orbit
所有者/国 SPXS/US

Most Searched